contact:dominique.lefevre@mio.osupytheas.fr, maurice.libes@osupytheas.fr, didier.mallarino@osupytheas.fr
Project:EMSO http://www.emso-fr.org/EMSO-France
Depth: 2436.0 m
Title:EMSO Ligure Ouest : Data MII capteur AQUADOPP
Date,Latitude,Longitude,X_East,Y_North,Z_Up,Amplitude_X,Amplitude_Y,Amplitude_Z,Batterie,SoundSpeed,Heading,Pitch,Roll,Pressure,TIS,Speed,Direction
, degrees North, degrees East, m.s-1, m.s-1,m.s-1, 1, 1, 1, Volt, m.s-1, degree, degree, degree, dbar, degree_C, m.s-1, degree
2019-07-06T00:09:04,42.805,6.029,-0.017,0.019,-0.008,103.0,106.0,99.0,13.4,1505.2,326.7,-0.8,1.8,2470.248,13.3,0.025,318.2
2019-07-06T00:12:05,42.805,6.029,-0.036,0.015,0.003,103.0,106.0,100.0,13.4,1505.3,327.9,-0.8,1.8,2470.178,13.31,0.039,292.6
2019-07-06T00:15:06,42.805,6.029,-0.022,0.012,-0.002,103.0,106.0,100.0,13.4,1505.3,327.1,-0.7,1.8,2470.196,13.32,0.025,298.6
2019-07-06T00:18:07,42.805,6.029,-0.032,0.014,-0.013,104.0,109.0,101.0,13.4,1505.3,323.1,-0.8,1.8,2470.145,13.32,0.034,293.6
2019-07-06T00:21:08,42.805,6.029,-0.02,-0.002,0.01,103.0,107.0,100.0,13.4,1505.3,327.4,-0.7,1.9,2470.171,13.33,0.02,264.3
2019-07-06T00:24:09,42.805,6.029,-0.043,-0.005,0.001,106.0,106.0,98.0,13.4,1505.3,326.7,-0.7,1.9,2470.213,13.33,0.043,263.4
2019-07-06T00:27:10,42.805,6.029,-0.001,0.007,0.007,104.0,106.0,99.0,13.4,1505.3,324.3,-0.8,1.8,2470.168,13.33,0.007,351.9
2019-07-06T00:30:11,42.805,6.029,-0.015,0.009,-0.019,103.0,109.0,98.0,13.4,1505.3,324.5,-0.8,1.8,2470.167,13.33,0.017,301.0
2019-07-06T00:33:12,42.805,6.029,-0.05,0.001,-0.036,104.0,104.0,100.0,13.3,1505.3,326.4,-0.7,1.8,2470.121,13.33,0.05,271.1
2019-07-06T00:36:13,42.805,6.029,-0.008,-0.007,-0.017,103.0,106.0,99.0,13.4,1505.3,326.3,-0.7,1.9,2470.179,13.33,0.01,228.8
2019-07-06T00:39:14,42.805,6.029,0.004,0.004,0.02,103.0,106.0,99.0,13.4,1505.3,325.9,-0.7,1.8,2470.174,13.33,0.005,45.0
2019-07-06T00:42:15,42.805,6.029,-0.005,0.001,-0.013,103.0,104.0,102.0,13.4,1505.3,324.5,-0.7,1.9,2470.144,13.33,0.005,281.3
2019-07-06T00:45:16,42.805,6.029,-0.009,0.019,0.016,103.0,107.0,100.0,13.4,1505.3,327.2,-0.7,1.9,2470.179,13.33,0.021,334.7
2019-07-06T00:48:17,42.805,6.029,-0.017,0.003,-0.002,104.0,106.0,99.0,13.3,1505.3,327.0,-0.7,1.8,2470.151,13.33,0.017,280.0
2019-07-06T00:51:18,42.805,6.029,-0.014,-0.009,-0.011,103.0,107.0,100.0,13.4,1505.3,324.9,-0.7,1.8,2470.12,13.33,0.016,237.3
2019-07-06T00:54:19,42.805,6.029,-0.049,0.029,-0.008,104.0,106.0,101.0,13.4,1505.3,326.4,-0.7,1.8,2470.11,13.33,0.056,300.6
2019-07-06T00:57:20,42.805,6.029,-0.029,0.012,-0.027,103.0,107.0,99.0,13.4,1505.3,323.0,-0.7,1.8,2470.149,13.33,0.031,292.5
2019-07-06T01:00:21,42.805,6.029,-0.053,0.014,-0.055,104.0,107.0,99.0,13.4,1505.3,325.4,-0.7,1.8,2470.116,13.33,0.054,284.8
2019-07-06T01:03:22,42.805,6.029,-0.006,-0.011,0.003,103.0,107.0,99.0,13.3,1505.3,326.0,-0.7,1.8,2470.123,13.33,0.012,208.6
2019-07-06T01:06:23,42.805,6.029,-0.025,-0.001,-0.044,104.0,106.0,100.0,13.4,1505.3,326.6,-0.7,1.9,2470.104,13.33,0.025,267.7
2019-07-06T01:09:24,42.805,6.029,-0.015,0.012,-0.006,104.0,106.0,100.0,13.4,1505.3,322.9,-0.8,1.8,2470.12,13.33,0.019,308.7
2019-07-06T01:12:25,42.805,6.029,-0.02,0.0,-0.008,104.0,108.0,98.0,13.4,1505.3,323.6,-0.8,1.8,2470.085,13.33,0.02,270.0
2019-07-06T01:15:26,42.805,6.029,-0.043,-0.002,-0.026,103.0,108.0,100.0,13.4,1505.3,327.1,-0.7,1.9,2470.109,13.33,0.043,267.3
2019-07-06T01:18:27,42.805,6.029,-0.037,0.006,-0.054,102.0,107.0,100.0,13.4,1505.3,325.6,-0.8,1.8,2470.131,13.33,0.037,279.2
2019-07-06T01:21:28,42.805,6.029,-0.009,0.009,-0.015,104.0,106.0,99.0,13.4,1505.3,326.5,-0.7,1.9,2470.114,13.33,0.012,315.0
2019-07-06T01:24:29,42.805,6.029,-0.044,0.001,-0.014,103.0,107.0,100.0,13.4,1505.3,323.7,-0.8,1.8,2470.13,13.33,0.044,271.3
2019-07-06T01:27:30,42.805,6.029,-0.022,0.021,0.0,104.0,107.0,99.0,13.4,1505.3,326.3,-0.7,1.8,2470.112,13.33,0.03,313.7
2019-07-06T01:30:31,42.805,6.029,-0.018,0.0,0.01,104.0,107.0,100.0,13.4,1505.3,324.7,-0.7,1.8,2470.147,13.33,0.018,270.0
2019-07-06T01:33:32,42.805,6.029,-0.021,0.011,0.033,105.0,105.0,99.0,13.4,1505.3,323.9,-0.7,1.9,2470.113,13.33,0.023,297.6
2019-07-06T01:36:33,42.805,6.029,-0.059,0.022,-0.006,102.0,106.0,101.0,13.4,1505.3,326.7,-0.7,1.8,2470.125,13.33,0.062,290.4
2019-07-06T01:39:34,42.805,6.029,-0.02,0.023,-0.009,103.0,107.0,97.0,13.4,1505.3,325.8,-0.7,1.9,2470.134,13.33,0.03,319.0
2019-07-06T01:42:35,42.805,6.029,-0.047,0.012,-0.042,103.0,105.0,100.0,13.4,1505.3,324.7,-0.7,1.8,2470.124,13.33,0.048,284.3
2019-07-06T01:45:36,42.805,6.029,-0.037,-0.002,-0.017,104.0,106.0,101.0,13.4,1505.3,323.7,-0.7,1.9,2470.073,13.33,0.037,266.9
2019-07-06T01:48:37,42.805,6.029,-0.03,0.012,-0.012,101.0,107.0,100.0,13.4,1505.3,327.4,-0.7,1.8,2470.047,13.33,0.032,291.8
2019-07-06T01:51:38,42.805,6.029,-0.052,0.019,-0.045,103.0,107.0,99.0,13.4,1505.3,324.8,-0.7,1.8,2470.06,13.33,0.055,290.1
2019-07-06T01:54:39,42.805,6.029,-0.005,0.008,-0.022,102.0,107.0,102.0,13.3,1505.3,324.7,-0.7,1.8,2470.076,13.33,0.009,328.0
2019-07-06T01:57:40,42.805,6.029,-0.04,0.012,-0.023,102.0,106.0,99.0,13.4,1505.3,328.1,-0.7,1.8,2470.087,13.33,0.041,286.7
2019-07-06T02:00:41,42.805,6.029,0.001,0.011,0.011,103.0,107.0,100.0,13.4,1505.3,326.3,-0.7,1.8,2470.077,13.33,0.011,5.2
2019-07-06T02:03:42,42.805,6.029,-0.005,0.003,-0.006,103.0,107.0,100.0,13.4,1505.3,323.3,-0.7,1.8,2470.06,13.33,0.005,301.0
2019-07-06T02:06:43,42.805,6.029,-0.049,0.022,-0.017,104.0,106.0,98.0,13.3,1505.3,325.2,-0.7,1.8,2470.072,13.33,0.053,294.2
2019-07-06T02:09:44,42.805,6.029,-0.038,0.012,-0.019,105.0,107.0,100.0,13.4,1505.3,324.2,-0.7,1.9,2470.006,13.33,0.039,287.5
2019-07-06T02:12:45,42.805,6.029,-0.052,-0.02,-0.019,103.0,104.0,100.0,13.4,1505.3,325.1,-0.7,1.9,2470.034,13.33,0.055,249.0
2019-07-06T02:15:46,42.805,6.029,-0.01,0.016,-0.005,102.0,106.0,99.0,13.3,1505.3,323.3,-0.7,1.9,2470.057,13.33,0.018,328.0
2019-07-06T02:18:47,42.805,6.029,-0.03,-0.007,-0.023,104.0,106.0,98.0,13.4,1505.3,327.6,-0.7,1.9,2470.033,13.33,0.03,256.9
2019-07-06T02:21:48,42.805,6.029,-0.018,0.015,-0.005,102.0,105.0,98.0,13.3,1505.3,324.6,-0.7,1.9,2470.056,13.33,0.023,309.8
2019-07-06T02:24:49,42.805,6.029,-0.045,-0.001,-0.013,103.0,104.0,99.0,13.4,1505.3,324.7,-0.7,1.9,2470.05,13.33,0.045,268.7
2019-07-06T02:27:50,42.805,6.029,-0.035,-0.002,-0.026,101.0,107.0,99.0,13.4,1505.3,326.1,-0.8,1.9,2470.062,13.33,0.035,266.7
2019-07-06T02:30:51,42.805,6.029,-0.04,-0.007,-0.031,103.0,106.0,98.0,13.4,1505.3,324.8,-0.7,1.8,2470.054,13.33,0.04,260.1
2019-07-06T02:33:52,42.805,6.029,-0.035,0.025,-0.017,102.0,106.0,99.0,13.3,1505.3,327.7,-0.7,1.8,2470.022,13.33,0.043,305.5
2019-07-06T02:36:53,42.805,6.029,-0.059,0.028,-0.015,102.0,106.0,99.0,13.3,1505.3,325.7,-0.7,1.8,2470.017,13.33,0.065,295.4
2019-07-06T02:39:54,42.805,6.029,-0.022,0.019,0.0,101.0,106.0,98.0,13.3,1505.3,323.7,-0.7,1.8,2470.045,13.33,0.029,310.8
2019-07-06T02:42:55,42.805,6.029,-0.019,-0.002,0.006,102.0,107.0,100.0,13.4,1505.3,328.1,-0.7,1.9,2470.09,13.33,0.019,264.0
2019-07-06T02:45:56,42.805,6.029,0.007,0.025,0.02,103.0,105.0,99.0,13.3,1505.3,325.5,-0.8,1.8,2470.016,13.33,0.025,15.6
2019-07-06T02:48:57,42.805,6.029,-0.019,0.007,-0.033,104.0,105.0,98.0,13.4,1505.3,325.2,-0.7,1.8,2470.017,13.33,0.02,290.2
2019-07-06T02:51:58,42.805,6.029,-0.015,0.015,0.001,101.0,105.0,98.0,13.4,1505.3,327.5,-0.7,1.8,2470.023,13.33,0.021,315.0
2019-07-06T02:54:59,42.805,6.029,-0.015,0.009,-0.004,103.0,106.0,98.0,13.4,1505.3,324.4,-0.7,1.9,2470.033,13.33,0.017,301.0
2019-07-06T02:58:00,42.805,6.029,-0.024,0.006,-0.003,103.0,105.0,101.0,13.3,1505.3,326.0,-0.7,1.8,2470.054,13.33,0.024,284.0
2019-07-06T03:01:01,42.805,6.029,-0.053,0.012,-0.023,101.0,105.0,98.0,13.4,1505.3,324.8,-0.8,1.8,2470.017,13.33,0.054,282.8
2019-07-06T03:04:02,42.805,6.029,0.011,0.017,0.018,103.0,105.0,97.0,13.4,1505.3,324.6,-0.7,1.9,2470.027,13.33,0.02,32.9
2019-07-06T03:07:03,42.805,6.029,-0.002,-0.003,-0.025,102.0,105.0,100.0,13.4,1505.3,326.6,-0.7,1.8,2470.021,13.33,0.003,213.7
2019-07-06T03:10:04,42.805,6.029,-0.008,0.002,0.013,103.0,105.0,98.0,13.4,1505.3,323.4,-0.7,1.8,2469.983,13.33,0.008,284.0
2019-07-06T03:13:05,42.805,6.029,-0.014,0.004,-0.008,102.0,105.0,98.0,13.4,1505.3,327.8,-0.7,1.9,2470.0,13.33,0.014,285.9
2019-07-06T03:16:06,42.805,6.029,-0.014,0.017,-0.044,102.0,106.0,99.0,13.4,1505.3,324.3,-0.7,1.8,2470.037,13.33,0.022,320.5
2019-07-06T03:19:07,42.805,6.029,-0.04,0.007,0.002,103.0,106.0,99.0,13.4,1505.3,325.3,-0.7,1.9,2469.962,13.33,0.04,279.9
2019-07-06T03:22:08,42.805,6.029,-0.033,0.005,-0.021,103.0,105.0,97.0,13.4,1505.3,323.9,-0.7,1.8,2470.072,13.33,0.033,278.6
2019-07-06T03:25:09,42.805,6.029,-0.034,-0.013,-0.033,101.0,106.0,98.0,13.3,1505.3,324.8,-0.7,1.9,2470.047,13.33,0.036,249.1
2019-07-06T03:28:10,42.805,6.029,-0.053,-0.018,-0.042,101.0,105.0,98.0,13.4,1505.3,324.3,-0.7,1.8,2470.036,13.33,0.055,251.2
2019-07-06T03:31:11,42.805,6.029,-0.048,0.015,0.003,102.0,106.0,97.0,13.4,1505.3,324.3,-0.7,1.8,2469.992,13.33,0.05,287.4
2019-07-06T03:34:12,42.805,6.029,-0.024,0.009,-0.01,101.0,105.0,97.0,13.4,1505.3,324.9,-0.7,1.8,2470.005,13.33,0.025,290.6
2019-07-06T03:37:13,42.805,6.029,-0.036,0.019,-0.023,102.0,104.0,98.0,13.4,1505.3,326.6,-0.7,1.9,2469.975,13.33,0.04,297.8
2019-07-06T03:40:14,42.805,6.029,-0.022,0.006,-0.023,104.0,106.0,100.0,13.4,1505.3,325.7,-0.7,1.8,2470.0,13.33,0.022,285.3
2019-07-06T03:43:15,42.805,6.029,-0.076,0.002,-0.074,101.0,105.0,100.0,13.4,1505.3,327.8,-0.7,1.8,2470.034,13.33,0.076,271.5
2019-07-06T03:46:16,42.805,6.029,-0.018,0.014,0.031,102.0,105.0,100.0,13.4,1505.3,325.7,-0.8,1.8,2469.991,13.33,0.022,307.9
2019-07-06T03:49:17,42.805,6.029,-0.035,0.026,-0.043,102.0,106.0,98.0,13.4,1505.3,327.0,-0.6,1.8,2470.018,13.33,0.043,306.6
2019-07-06T03:52:18,42.805,6.029,-0.018,0.026,-0.016,101.0,106.0,98.0,13.4,1505.3,324.8,-0.7,1.8,2469.997,13.33,0.031,325.3
2019-07-06T03:55:19,42.805,6.029,-0.027,0.016,-0.008,102.0,105.0,98.0,13.4,1505.3,326.9,-0.7,1.8,2469.993,13.33,0.031,300.7
2019-07-06T03:58:20,42.805,6.029,-0.013,0.006,-0.002,102.0,106.0,98.0,13.4,1505.3,325.8,-0.7,1.8,2470.045,13.33,0.014,294.8
2019-07-06T04:01:21,42.805,6.029,-0.034,-0.008,-0.014,101.0,104.0,98.0,13.3,1505.3,327.7,-0.7,1.8,2469.997,13.33,0.034,256.8
2019-07-06T04:04:22,42.805,6.029,0.014,-0.003,0.031,100.0,107.0,98.0,13.4,1505.3,326.1,-0.7,1.8,2470.044,13.33,0.014,102.1
2019-07-06T04:07:23,42.805,6.029,0.016,0.02,0.01,103.0,106.0,100.0,13.3,1505.3,326.0,-0.7,1.9,2469.99,13.33,0.025,38.7
2019-07-06T04:10:24,42.805,6.029,-0.023,-0.009,-0.006,103.0,105.0,98.0,13.4,1505.3,326.4,-0.7,1.9,2470.03,13.33,0.024,248.6
2019-07-06T04:13:25,42.805,6.029,-0.02,0.031,-0.008,104.0,105.0,99.0,13.4,1505.3,324.4,-0.7,1.8,2469.982,13.33,0.036,327.2
2019-07-06T04:16:26,42.805,6.029,0.006,-0.001,-0.005,100.0,106.0,98.0,13.4,1505.3,326.3,-0.7,1.8,2469.987,13.33,0.006,99.5
2019-07-06T04:19:27,42.805,6.029,-0.01,0.02,0.01,103.0,106.0,98.0,13.4,1505.3,322.8,-0.7,1.9,2470.007,13.33,0.022,333.4
2019-07-06T04:22:28,42.805,6.029,-0.024,0.0,-0.025,101.0,106.0,97.0,13.3,1505.3,326.8,-0.7,1.9,2470.023,13.33,0.024,270.0
2019-07-06T04:25:29,42.805,6.029,-0.033,0.016,-0.036,102.0,106.0,98.0,13.4,1505.3,325.3,-0.7,1.8,2470.006,13.33,0.036,295.9
2019-07-06T04:28:30,42.805,6.029,-0.015,0.001,-0.021,101.0,105.0,97.0,13.4,1505.3,325.4,-0.7,1.8,2469.972,13.33,0.015,273.8
2019-07-06T04:31:31,42.805,6.029,0.008,0.012,0.009,102.0,105.0,98.0,13.4,1505.3,324.9,-0.7,1.8,2469.976,13.33,0.014,33.7
2019-07-06T04:34:32,42.805,6.029,-0.001,0.006,0.015,101.0,103.0,98.0,13.4,1505.3,325.5,-0.7,1.8,2469.942,13.33,0.006,350.5
2019-07-06T04:37:33,42.805,6.029,0.016,0.014,0.04,102.0,104.0,100.0,13.3,1505.3,325.5,-0.7,1.9,2469.989,13.33,0.021,48.8
2019-07-06T04:40:34,42.805,6.029,-0.018,0.011,-0.024,101.0,106.0,98.0,13.4,1505.3,326.1,-0.7,1.8,2469.966,13.33,0.021,301.4
2019-07-06T04:43:35,42.805,6.029,-0.01,0.013,-0.034,101.0,107.0,98.0,13.3,1505.3,326.7,-0.7,1.8,2469.971,13.33,0.016,322.4
2019-07-06T04:46:36,42.805,6.029,-0.022,0.008,-0.024,101.0,105.0,98.0,13.4,1505.3,322.9,-0.7,1.8,2469.983,13.33,0.023,290.0
2019-07-06T04:49:37,42.805,6.029,-0.041,-0.008,-0.027,100.0,104.0,98.0,13.3,1505.3,326.5,-0.7,1.8,2469.972,13.33,0.041,259.0
2019-07-06T04:52:38,42.805,6.029,0.015,0.01,-0.025,103.0,108.0,97.0,13.4,1505.3,328.2,-0.7,1.8,2469.947,13.33,0.018,56.3
2019-07-06T04:55:39,42.805,6.029,-0.025,0.003,-0.028,102.0,104.0,99.0,13.4,1505.3,326.8,-0.7,1.9,2470.007,13.33,0.025,276.8
2019-07-06T04:58:40,42.805,6.029,-0.004,0.016,-0.012,101.0,107.0,100.0,13.4,1505.3,326.5,-0.7,1.8,2470.0,13.33,0.016,346.0
2019-07-06T05:01:41,42.805,6.029,-0.028,-0.006,-0.017,101.0,106.0,98.0,13.4,1505.3,323.5,-0.7,1.9,2469.987,13.33,0.028,257.9
2019-07-06T05:04:42,42.805,6.029,-0.024,0.015,0.002,103.0,104.0,98.0,13.4,1505.3,325.8,-0.8,1.8,2469.991,13.33,0.028,302.0
2019-07-06T05:07:43,42.805,6.029,-0.018,0.027,-0.009,102.0,105.0,97.0,13.4,1505.3,328.1,-0.7,1.9,2470.046,13.33,0.032,326.3
2019-07-06T05:10:44,42.805,6.029,0.0,0.014,-0.018,102.0,105.0,97.0,13.3,1505.3,326.4,-0.7,1.8,2469.983,13.33,0.014,0.0
2019-07-06T05:13:45,42.805,6.029,-0.023,0.009,-0.022,103.0,105.0,99.0,13.4,1505.3,327.7,-0.7,1.8,2470.004,13.33,0.024,291.4
2019-07-06T05:16:46,42.805,6.029,-0.038,0.0,-0.024,104.0,107.0,98.0,13.4,1505.3,323.8,-0.8,1.8,2470.003,13.33,0.038,270.0
2019-07-06T05:19:47,42.805,6.029,-0.002,0.02,0.013,103.0,107.0,98.0,13.4,1505.3,325.1,-0.7,1.9,2470.059,13.33,0.02,354.3
2019-07-06T05:22:48,42.805,6.029,-0.017,0.01,-0.026,103.0,105.0,99.0,13.4,1505.3,324.5,-0.7,1.8,2469.951,13.33,0.019,300.5
2019-07-06T05:25:49,42.805,6.029,-0.007,0.024,0.006,100.0,108.0,100.0,13.4,1505.3,325.1,-0.7,1.8,2469.978,13.33,0.025,343.7
2019-07-06T05:28:50,42.805,6.029,-0.031,-0.007,-0.011,102.0,105.0,98.0,13.4,1505.3,326.0,-0.7,1.8,2469.98,13.33,0.031,257.3
2019-07-06T05:31:51,42.805,6.029,-0.045,0.0,-0.012,101.0,106.0,99.0,13.4,1505.3,326.5,-0.8,1.9,2470.003,13.33,0.045,270.0
2019-07-06T05:34:52,42.805,6.029,-0.024,0.01,-0.026,103.0,104.0,99.0,13.3,1505.3,326.3,-0.7,1.8,2469.962,13.33,0.026,292.6
2019-07-06T05:37:53,42.805,6.029,-0.01,0.01,0.016,102.0,105.0,98.0,13.4,1505.3,323.5,-0.7,1.8,2470.003,13.33,0.014,315.0
2019-07-06T05:40:54,42.805,6.029,0.007,0.001,0.002,103.0,106.0,98.0,13.4,1505.3,325.8,-0.7,1.8,2469.973,13.33,0.007,81.9
2019-07-06T05:43:55,42.805,6.029,-0.015,0.021,0.017,103.0,107.0,98.0,13.4,1505.3,325.5,-0.8,1.9,2469.976,13.33,0.025,324.5
2019-07-06T05:46:56,42.805,6.029,-0.021,0.03,0.009,102.0,104.0,98.0,13.4,1505.3,324.8,-0.7,1.8,2470.02,13.33,0.036,325.0
2019-07-06T05:49:57,42.805,6.029,-0.027,-0.007,-0.048,102.0,105.0,99.0,13.4,1505.3,324.6,-0.7,1.8,2470.018,13.33,0.027,255.5
2019-07-06T05:52:58,42.805,6.029,-0.029,0.018,0.013,102.0,105.0,99.0,13.4,1505.3,328.4,-0.7,1.9,2470.017,13.33,0.034,301.8
2019-07-06T05:55:59,42.805,6.029,-0.015,0.015,-0.069,104.0,106.0,99.0,13.4,1505.3,324.0,-0.7,1.8,2470.031,13.33,0.021,315.0
2019-07-06T05:59:00,42.805,6.029,-0.01,0.002,-0.019,102.0,105.0,100.0,13.3,1505.3,326.9,-0.7,1.9,2470.018,13.33,0.01,281.3
2019-07-06T06:02:01,42.805,6.029,-0.032,0.0,-0.03,105.0,105.0,99.0,13.4,1505.3,326.8,-0.7,1.8,2469.956,13.33,0.032,270.0
2019-07-06T06:05:02,42.805,6.029,-0.027,0.013,-0.061,103.0,107.0,99.0,13.4,1505.3,324.1,-0.7,1.8,2469.987,13.33,0.029,295.7
2019-07-06T06:08:03,42.805,6.029,-0.035,0.012,-0.02,102.0,108.0,99.0,13.4,1505.3,325.4,-0.7,1.8,2470.003,13.33,0.037,288.9
2019-07-06T06:11:04,42.805,6.029,-0.035,-0.002,-0.015,103.0,108.0,99.0,13.3,1505.3,327.3,-0.7,1.8,2470.022,13.33,0.035,266.7
2019-07-06T06:14:05,42.805,6.029,-0.016,0.015,-0.01,102.0,107.0,100.0,13.4,1505.3,326.2,-0.8,1.8,2470.012,13.33,0.021,313.1
2019-07-06T06:17:06,42.805,6.029,-0.023,-0.005,-0.006,103.0,107.0,99.0,13.4,1505.3,328.0,-0.7,1.9,2469.973,13.33,0.023,257.7
2019-07-06T06:20:07,42.805,6.029,0.0,0.011,0.006,103.0,108.0,100.0,13.3,1505.3,325.9,-0.7,1.8,2470.016,13.33,0.011,0.0
2019-07-06T06:23:08,42.805,6.029,-0.031,-0.005,-0.004,104.0,107.0,101.0,13.4,1505.3,324.1,-0.7,1.8,2469.981,13.33,0.031,260.8
2019-07-06T06:26:09,42.805,6.029,-0.016,0.007,-0.013,104.0,108.0,99.0,13.4,1505.3,325.6,-0.7,1.8,2470.03,13.33,0.017,293.6
2019-07-06T06:29:10,42.805,6.029,-0.001,0.01,-0.011,103.0,107.0,100.0,13.4,1505.3,327.8,-0.7,1.8,2469.947,13.33,0.01,354.3
2019-07-06T06:32:11,42.805,6.029,-0.015,-0.003,0.007,102.0,107.0,99.0,13.4,1505.3,322.5,-0.7,1.8,2470.007,13.33,0.015,258.7
2019-07-06T06:35:12,42.805,6.029,-0.018,0.0,-0.011,103.0,107.0,98.0,13.4,1505.3,325.7,-0.7,1.8,2470.024,13.33,0.018,270.0
2019-07-06T06:38:13,42.805,6.029,-0.038,0.03,0.008,102.0,106.0,100.0,13.3,1505.3,326.9,-0.7,1.8,2470.042,13.33,0.048,308.3
2019-07-06T06:41:14,42.805,6.029,-0.015,0.012,-0.018,103.0,105.0,99.0,13.4,1505.3,323.9,-0.7,1.8,2470.037,13.33,0.019,308.7
2019-07-06T06:44:15,42.805,6.029,-0.016,0.033,-0.015,103.0,106.0,99.0,13.4,1505.3,326.7,-0.7,1.8,2470.017,13.33,0.036,334.1
2019-07-06T06:47:16,42.805,6.029,-0.02,0.009,-0.002,102.0,108.0,100.0,13.3,1505.3,328.1,-0.7,1.8,2470.026,13.33,0.021,294.2
2019-07-06T06:50:17,42.805,6.029,-0.027,0.014,-0.008,104.0,106.0,99.0,13.3,1505.3,324.9,-0.7,1.8,2470.005,13.33,0.03,297.4
2019-07-06T06:53:18,42.805,6.029,-0.021,0.0,0.013,103.0,107.0,99.0,13.3,1505.3,327.5,-0.7,1.8,2470.029,13.33,0.021,270.0
2019-07-06T06:56:19,42.805,6.029,-0.022,0.023,-0.002,104.0,106.0,101.0,13.4,1505.3,326.4,-0.7,1.8,2470.022,13.33,0.031,316.3
2019-07-06T06:59:20,42.805,6.029,-0.026,0.006,-0.032,104.0,106.0,100.0,13.4,1505.3,326.3,-0.7,1.9,2470.04,13.33,0.026,283.0
2019-07-06T07:02:21,42.805,6.029,-0.03,0.006,-0.012,104.0,108.0,99.0,13.4,1505.3,325.8,-0.7,1.8,2470.048,13.33,0.03,281.3
2019-07-06T07:05:22,42.805,6.029,-0.032,0.017,-0.042,105.0,106.0,98.0,13.3,1505.3,326.0,-0.8,1.8,2470.038,13.33,0.036,298.0
2019-07-06T07:08:23,42.805,6.029,-0.022,0.0,-0.012,102.0,107.0,101.0,13.4,1505.3,322.7,-0.8,1.8,2470.082,13.33,0.022,270.0
2019-07-06T07:11:24,42.805,6.029,-0.035,0.016,0.006,105.0,107.0,101.0,13.4,1505.3,325.9,-0.8,1.8,2469.995,13.33,0.038,294.6
2019-07-06T07:14:25,42.805,6.029,-0.035,0.006,-0.003,104.0,107.0,100.0,13.4,1505.3,323.7,-0.7,1.8,2470.012,13.33,0.035,279.7
2019-07-06T07:17:26,42.805,6.029,0.007,0.0,-0.004,106.0,110.0,100.0,13.4,1505.3,325.1,-0.7,1.8,2470.03,13.33,0.007,90.0
2019-07-06T07:20:27,42.805,6.029,-0.037,0.005,-0.019,105.0,110.0,98.0,13.3,1505.3,326.6,-0.7,1.8,2470.089,13.33,0.037,277.7
2019-07-06T07:23:28,42.805,6.029,-0.018,-0.002,-0.038,104.0,109.0,99.0,13.3,1505.3,326.3,-0.7,1.8,2470.026,13.33,0.018,263.7
2019-07-06T07:26:29,42.805,6.029,-0.027,0.003,-0.056,105.0,107.0,100.0,13.4,1505.3,328.4,-0.7,1.8,2470.087,13.33,0.027,276.3
2019-07-06T07:29:30,42.805,6.029,-0.018,0.016,-0.004,104.0,107.0,99.0,13.3,1505.3,328.2,-0.7,1.8,2470.029,13.33,0.024,311.6
2019-07-06T07:32:31,42.805,6.029,-0.034,0.004,-0.049,103.0,107.0,100.0,13.3,1505.3,327.8,-0.7,1.8,2470.084,13.33,0.034,276.7
2019-07-06T07:35:32,42.805,6.029,-0.027,0.008,-0.016,103.0,106.0,102.0,13.3,1505.4,327.0,-0.7,1.8,2470.058,13.34,0.028,286.5
2019-07-06T07:38:33,42.805,6.029,-0.023,0.0,-0.006,103.0,107.0,98.0,13.4,1505.3,328.2,-0.7,1.9,2470.088,13.33,0.023,270.0
2019-07-06T07:41:34,42.805,6.029,-0.011,0.006,-0.01,104.0,106.0,98.0,13.4,1505.3,323.9,-0.7,1.8,2470.075,13.33,0.012,298.6
2019-07-06T07:44:35,42.805,6.029,-0.047,0.016,-0.04,105.0,107.0,98.0,13.4,1505.3,325.4,-0.8,1.8,2470.089,13.33,0.049,288.8
2019-07-06T07:47:36,42.805,6.029,-0.039,-0.011,-0.005,101.0,105.0,99.0,13.3,1505.3,326.7,-0.8,1.8,2470.073,13.33,0.04,254.3
2019-07-06T07:50:37,42.805,6.029,-0.024,0.012,-0.002,104.0,106.0,99.0,13.4,1505.3,324.2,-0.7,1.8,2470.059,13.33,0.026,296.6
2019-07-06T07:53:38,42.805,6.029,-0.038,0.007,-0.019,104.0,108.0,99.0,13.3,1505.3,326.9,-0.7,1.8,2470.062,13.33,0.038,280.4
2019-07-06T07:56:39,42.805,6.029,-0.025,0.022,-0.039,104.0,105.0,100.0,13.4,1505.3,326.0,-0.8,1.8,2470.076,13.33,0.033,311.3
2019-07-06T07:59:40,42.805,6.029,-0.007,0.017,-0.001,103.0,106.0,99.0,13.4,1505.3,324.1,-0.7,1.8,2470.098,13.33,0.018,337.6
2019-07-06T08:02:41,42.805,6.029,-0.04,0.0,-0.036,104.0,105.0,99.0,13.3,1505.3,323.4,-0.7,1.8,2470.11,13.33,0.04,270.0
2019-07-06T08:05:42,42.805,6.029,-0.047,-0.016,-0.02,103.0,108.0,100.0,13.4,1505.3,323.6,-0.7,1.8,2470.099,13.33,0.049,251.2
2019-07-06T08:08:43,42.805,6.029,-0.02,0.022,-0.002,102.0,106.0,98.0,13.3,1505.3,325.0,-0.8,1.8,2470.137,13.33,0.029,317.7
2019-07-06T08:11:44,42.805,6.029,-0.012,0.014,-0.002,103.0,107.0,101.0,13.4,1505.3,324.7,-0.7,1.8,2470.085,13.33,0.018,319.4
2019-07-06T08:14:45,42.805,6.029,-0.033,0.002,-0.007,103.0,107.0,101.0,13.3,1505.3,325.9,-0.7,1.9,2470.04,13.33,0.033,273.5
2019-07-06T08:17:46,42.805,6.029,-0.018,0.007,-0.038,103.0,109.0,100.0,13.4,1505.3,324.2,-0.7,1.8,2470.123,13.33,0.019,291.2
2019-07-06T08:20:47,42.805,6.029,-0.03,0.014,-0.026,103.0,108.0,99.0,13.4,1505.3,326.7,-0.7,1.8,2470.09,13.33,0.033,295.0
2019-07-06T08:23:48,42.805,6.029,-0.042,0.01,-0.001,104.0,108.0,99.0,13.4,1505.3,326.5,-0.7,1.9,2470.096,13.33,0.043,283.4
2019-07-06T08:26:49,42.805,6.029,-0.008,0.013,-0.013,102.0,106.0,101.0,13.4,1505.3,328.3,-0.7,1.8,2470.087,13.33,0.015,328.4
2019-07-06T08:29:50,42.805,6.029,-0.026,0.019,0.002,103.0,106.0,99.0,13.4,1505.3,322.7,-0.7,1.8,2470.077,13.33,0.032,306.2
2019-07-06T08:32:51,42.805,6.029,-0.025,0.009,-0.025,103.0,106.0,99.0,13.3,1505.3,326.4,-0.7,1.8,2470.089,13.33,0.026,289.8
2019-07-06T08:35:52,42.805,6.029,-0.006,0.005,-0.037,102.0,106.0,100.0,13.4,1505.3,325.1,-0.8,1.8,2470.084,13.33,0.007,309.8
2019-07-06T08:38:53,42.805,6.029,-0.017,0.011,-0.016,102.0,106.0,99.0,13.4,1505.3,326.7,-0.8,1.9,2470.089,13.33,0.02,302.9
2019-07-06T08:41:54,42.805,6.029,-0.029,0.017,0.0,102.0,107.0,98.0,13.4,1505.3,327.3,-0.7,1.8,2470.114,13.33,0.033,300.4
2019-07-06T08:44:55,42.805,6.029,-0.012,0.032,-0.036,103.0,106.0,98.0,13.3,1505.3,324.1,-0.7,1.9,2470.105,13.33,0.034,339.4
2019-07-06T08:47:56,42.805,6.029,-0.007,0.011,-0.004,103.0,107.0,99.0,13.4,1505.3,326.3,-0.7,1.8,2470.088,13.33,0.013,327.5
2019-07-06T08:50:57,42.805,6.029,-0.032,0.015,-0.027,102.0,106.0,98.0,13.4,1505.3,324.7,-0.7,1.8,2470.082,13.33,0.035,295.1
2019-07-06T08:53:58,42.805,6.029,-0.013,0.01,-0.018,103.0,105.0,99.0,13.4,1505.3,326.0,-0.8,1.8,2470.137,13.33,0.016,307.6
2019-07-06T08:56:59,42.805,6.029,-0.033,0.005,-0.034,102.0,107.0,99.0,13.4,1505.3,325.2,-0.7,1.9,2470.082,13.33,0.033,278.6
2019-07-06T09:00:00,42.805,6.029,-0.034,0.018,-0.047,102.0,107.0,98.0,13.4,1505.3,327.9,-0.7,1.8,2470.161,13.33,0.038,297.9
2019-07-06T09:03:01,42.805,6.029,-0.016,0.009,-0.016,102.0,105.0,99.0,13.4,1505.3,323.4,-0.7,1.8,2470.084,13.33,0.018,299.4
2019-07-06T09:06:02,42.805,6.029,-0.029,0.008,-0.041,102.0,106.0,100.0,13.4,1505.3,324.2,-0.7,1.8,2470.09,13.33,0.03,285.4
2019-07-06T09:09:03,42.805,6.029,-0.054,0.005,-0.035,103.0,107.0,100.0,13.4,1505.3,325.9,-0.7,1.9,2470.107,13.33,0.054,275.3
2019-07-06T09:12:04,42.805,6.029,-0.028,0.024,-0.038,103.0,108.0,99.0,13.4,1505.3,326.6,-0.7,1.8,2470.095,13.33,0.036,310.6
2019-07-06T09:15:05,42.805,6.029,-0.035,0.015,-0.049,103.0,106.0,99.0,13.4,1505.3,327.7,-0.7,1.9,2470.138,13.33,0.038,293.2
2019-07-06T09:18:06,42.805,6.029,-0.05,0.0,-0.051,102.0,108.0,99.0,13.4,1505.3,325.2,-0.7,1.9,2470.127,13.33,0.05,270.0
2019-07-06T09:21:07,42.805,6.029,-0.026,0.004,-0.004,103.0,106.0,99.0,13.4,1505.3,323.8,-0.7,1.8,2470.083,13.33,0.026,278.7
2019-07-06T09:24:08,42.805,6.029,-0.017,-0.004,-0.016,103.0,108.0,98.0,13.4,1505.3,325.8,-0.7,1.9,2470.122,13.33,0.017,256.8
2019-07-06T09:27:09,42.805,6.029,-0.036,0.008,-0.043,102.0,108.0,99.0,13.4,1505.3,325.8,-0.7,1.8,2470.098,13.33,0.036,282.5
2019-07-06T09:30:10,42.805,6.029,-0.017,0.016,-0.032,102.0,109.0,98.0,13.3,1505.3,327.0,-0.7,1.9,2470.135,13.33,0.023,313.3
2019-07-06T09:33:11,42.805,6.029,-0.046,0.019,-0.016,105.0,108.0,99.0,13.3,1505.3,326.8,-0.7,1.8,2470.078,13.33,0.049,292.4
2019-07-06T09:36:12,42.805,6.029,-0.024,-0.015,-0.027,102.0,108.0,99.0,13.4,1505.3,326.6,-0.7,1.9,2470.102,13.33,0.028,238.0
2019-07-06T09:39:13,42.805,6.029,-0.006,-0.009,-0.004,104.0,108.0,100.0,13.4,1505.3,325.7,-0.7,1.8,2470.088,13.33,0.01,213.7